Home   Weather   Dannenberg   Past weeks

Flag for Germany Past Weather in Dannenberg, Lower Saxony, Germany — Yesterday and Last 2 Weeks

43 °F


Feels Like: 43 °F
Forecast: 37 / 49 °F
Wind: 2 mph from North

Location: Fassberg

Current Time: Oct 23, 2016 at 1:48:13 AM

Latest Report: Oct 23, 2016 at 12:20 AM

Visibility: 4 mi

Pressure: 29.95 "Hg

Humidity: 100%

Dew Point: 43 °F

Location of DannenbergLocation

Past Weather in Dannenberg — Graph


Dannenberg Temperature Yesterday

Maximum temperature yesterday: 48 °F (at 3:20 PM)
Minimum temperature yesterday: 43 °F (at 2:20 AM)
Average temperature yesterday: 44 °F

High & Low Weather Summary for the Past Weeks

High63 °F (Oct 16, 2:20 PM)100% (Oct 8, 10:20 PM)30.27 "Hg (Oct 8, 10:20 PM)
Low36 °F (Oct 9, 1:20 AM)54% (Oct 10, 3:20 PM)29.77 "Hg (Oct 15, 5:20 AM)
Average47 °F89%30.07 "Hg
* Reported Oct 8 12:20 AM — Oct 23 12:20 AM, Dannenberg, Weather by CustomWeather, © 2016

Note: Actual official high and low records may vary slightly from our data, if they occured in-between our weather recording intervals... More about our weather records


Dannenberg Weather History for the Previous 24 Hours

Scroll right to see more
Time TempWeatherWind HumidityBarometerVisibility
12:20 AM
Sun, Oct 23
43 °FFog.2 mph100%29.95 "Hg4 mi
11:20 PM
Sat, Oct 22
45 °FFog.3 mph93%29.95 "Hg4 mi
10:20 PM43 °FFog.No wind100%29.95 "Hg4 mi
9:20 PM45 °FFog.3 mph93%29.95 "Hg4 mi
8:20 PM45 °FFog.3 mph93%29.95 "Hg6 mi
7:20 PM45 °FFog.No wind93%29.95 "HgN/A
6:20 PM45 °FPassing clouds.1 mph93%29.95 "HgN/A
5:20 PM46 °FPartly sunny.2 mph82%29.95 "HgN/A
4:20 PM46 °FPartly sunny.3 mph87%29.92 "HgN/A
3:20 PM48 °FBroken clouds.3 mph76%29.95 "HgN/A
2:20 PM46 °FBroken clouds.3 mph87%29.95 "HgN/A
1:20 PM46 °FPartly sunny.5 mph87%29.95 "Hg6 mi
12:20 PM45 °FPartly sunny.6 mph87%29.95 "Hg6 mi
11:20 AM45 °FPartly sunny.7 mph93%29.92 "Hg4 mi
10:20 AM45 °FFog.5 mph93%29.92 "Hg3 mi
9:20 AM45 °FFog.5 mph93%29.92 "Hg2 mi
9:00 AM43 °FFog.3 mph100%29.92 "Hg2 mi
8:20 AM43 °FFog.7 mph100%29.92 "Hg1 mi
8:00 AM43 °FFog.6 mph93%29.92 "Hg1 mi
7:20 AM43 °FDrizzle. Fog.6 mph93%29.92 "Hg3 mi
6:20 AM43 °FLight rain. Passing clouds.6 mph93%29.89 "Hg4 mi
5:20 AM43 °FRain. Fog.8 mph93%29.89 "Hg3 mi
4:20 AM43 °FFog.6 mph100%29.89 "Hg3 mi
3:20 AM43 °FPassing clouds.7 mph100%29.89 "Hg4 mi
2:20 AM43 °FPassing clouds.7 mph100%29.89 "Hg4 mi
1:20 AM45 °FFog.7 mph93%29.89 "Hg2 mi
Weather by CustomWeather, © 2016

See weather overviewHow to use our weather pages